This is the latest recevied weather packets stored in our database for station/object KI6SYE. If no packets are shown the sender has not sent any weather packets the latest 10 day(s).
| Time | Temp. | Humidity | Pressure | Rain* | Wind** | Luminosity | Snow |
|---|---|---|---|---|---|---|---|
| 1778018851 | 18.33° C | 66% | 1014.7 hPa | 0 mm | - | 629 W/m² | - |
| 1778018548 | 17.78° C | 68% | 1014.7 hPa | 0 mm | - | 591 W/m² | - |
| 1778018246 | 17.78° C | 68% | 1014.8 hPa | 0 mm | - | 624 W/m² | - |
| 1778017944 | 17.22° C | 68% | 1014.7 hPa | 0 mm | - | 606 W/m² | - |
| 1778017641 | 17.78° C | 70% | 1014.7 hPa | 0 mm | - | 597 W/m² | - |
| 1778017338 | 17.78° C | 68% | 1014.8 hPa | 0 mm | - | 671 W/m² | - |
| 1778017036 | 17.78° C | 69% | 1014.9 hPa | 0 mm | - | 689 W/m² | - |
| 1778016733 | 17.22° C | 70% | 1015 hPa | 0 mm | - | 682 W/m² | - |
| 1778016428 | 17.78° C | 69% | 1015.1 hPa | 0 mm | - | 699 W/m² | - |
| 1778016126 | 17.22° C | 69% | 1015.1 hPa | 0 mm | - | 731 W/m² | - |
| 1778015823 | 17.22° C | 69% | 1015 hPa | 0 mm | - | 210 W/m² | - |
| 1778015520 | 17.78° C | 68% | 1014.9 hPa | 0 mm | - | 473 W/m² | - |
| 1778015217 | 17.78° C | 67% | 1015.1 hPa | 0 mm | - | 767 W/m² | - |
| 1778014914 | 17.22° C | 69% | 1015.2 hPa | 0 mm | - | 746 W/m² | - |
| 1778014611 | 17.78° C | 67% | 1015 hPa | 0 mm | - | 747 W/m² | - |
| 1778014309 | 17.22° C | 69% | 1015.1 hPa | 0 mm | - | 776 W/m² | - |
| 1778014005 | 17.22° C | 70% | 1015 hPa | 0 mm | - | 594 W/m² | - |
| 1778013704 | 17.22° C | 69% | 1015.1 hPa | 0 mm | - | 410 W/m² | - |
| 1778013400 | 17.22° C | 69% | 1015.1 hPa | 0 mm | - | 479 W/m² | - |
| 1778013097 | 17.22° C | 69% | 1015 hPa | 0 mm | - | 419 W/m² | - |
| 1778012792 | 17.22° C | 68% | 1015.1 hPa | 0 mm | - | 388 W/m² | - |
| 1778012489 | 16.67° C | 69% | 1014.9 hPa | 0 mm | - | 436 W/m² | - |
| 1778012185 | 16.67° C | 70% | 1014.9 hPa | 0 mm | - | 383 W/m² | - |
| 1778011883 | 16.67° C | 69% | 1015.1 hPa | 0 mm | - | 406 W/m² | - |
| 1778011581 | 17.22° C | 69% | 1015 hPa | 0 mm | - | 406 W/m² | - |
* Rain latest hour (hover to see other rain measurements)
** Current wind speed in m/s (hover to see current wind gust speed)